Wind_Speed
21 19 18 17 16 16 15 14 13 13 11 11 10 9 9 9 9 9 8 8 6 5 4 4 4 3 2 1 2 2 1 1 2 3 4 4 4 4 4 4 4 3 4 4 4 5 6 7 8 9 10 11 12 13 13 12 13 13 14 16 17 16 15 15 14 13 13 13 13 12 12 12 12 12 11 11 12 13 13 13 12 12 11 12 12
19 18 17 16 15 15 14 14 13 12 11 10 9 8 8 7 7 6 6 6 5 4 3 3 2 2 2 1 1 1 2 3 4 5 5 5 6 5 5 5 4 5 5 4 4 5 6 7 8 9 10 11 12 13 13 13 13 14 15 16 17 16 14 15 14 13 12 13 13 12 12 12 12 12 11 11 12 13 14 13 12 11 11 12 13
17 16 16 16 15 15 14 13 12 11 10 9 7 7 6 6 5 4 4 3 3 3 2 2 2 2 2 2 1 2 3 3 4 4 5 6 6 5 5 5 5 7 7 6 6 6 6 7 8 9 11 12 12 13 13 13 13 14 15 16 16 15 14 14 13 12 12 12 13 12 11 12 12 12 11 12 12 14 14 13 13 11 12 13 13
16 16 16 16 15 14 13 12 12 10 9 8 6 6 5 4 3 2 2 2 2 2 2 2 2 2 2 3 2 3 3 3 4 4 5 5 5 6 6 6 6 8 9 9 8 8 8 8 9 10 12 12 13 14 14 13 13 14 15 15 15 15 14 13 12 12 11 12 12 11 11 12 12 11 12 12 12 14 14 13 12 11 12 12 13
15 15 15 14 13 12 12 11 11 10 8 7 5 4 3 2 2 1 1 1 1 1 2 2 4 4 3 4 4 4 4 5 5 5 5 5 6 6 7 6 6 7 9 11 10 10 10 10 11 12 13 13 14 15 15 14 14 14 14 15 15 14 14 13 12 12 11 11 12 11 11 12 11 11 12 12 12 13 13 12 11 11 11 12 12
14 14 14 13 12 11 10 11 10 9 7 5 4 3 2 2 2 2 2 2 2 2 3 3 5 5 5 6 6 5 5 6 6 6 7 7 7 7 7 7 7 7 8 11 11 10 11 12 13 13 14 14 15 16 16 16 15 15 14 13 13 13 13 13 13 12 12 12 11 10 10 11 11 11 11 11 11 12 12 11 11 11 11 11 11
14 13 13 12 11 10 10 10 9 7 6 4 3 3 3 3 3 3 3 3 3 4 3 4 5 5 6 6 6 6 6 6 6 7 8 7 8 7 6 7 8 9 8 9 10 9 11 12 14 14 14 15 16 16 16 16 16 16 15 14 13 12 12 12 13 13 12 12 10 9 9 10 11 11 11 10 11 11 11 11 10 10 10 10 9
14 13 13 11 11 10 9 9 7 6 5 4 4 4 4 4 4 4 4 3 3 5 5 5 6 6 6 6 6 6 6 6 6 7 8 8 8 7 7 7 8 9 9 10 11 12 13 14 15 15 15 16 16 16 16 16 16 16 16 15 14 13 12 12 12 12 11 11 9 8 9 9 10 10 10 10 11 11 10 10 10 9 9 8 8
14 14 13 12 11 10 9 7 6 6 5 5 4 4 4 4 4 4 5 5 5 6 7 6 7 8 7 6 5 5 5 5 6 7 8 8 7 8 8 8 8 9 11 12 13 15 16 15 15 15 15 16 17 16 15 16 16 16 16 16 15 14 14 13 12 11 11 10 9 8 8 8 8 10 10 10 11 11 9 9 9 8 7 7 7
15 14 13 12 11 9 8 6 6 6 5 5 4 5 4 5 5 6 6 6 8 9 8 8 8 8 7 7 5 4 5 6 7 8 8 8 8 9 10 9 9 11 13 14 16 17 17 16 15 16 15 17 18 16 16 16 15 16 16 15 15 14 14 14 13 12 12 11 10 9 9 9 9 10 10 10 10 10 9 8 8 7 6 6 6
16 15 13 11 9 8 7 6 6 5 5 4 4 4 4 5 6 6 6 5 8 11 11 10 8 8 8 7 5 4 5 6 7 7 8 9 10 10 10 11 12 15 16 17 18 18 17 16 16 17 17 18 18 16 16 16 15 15 16 15 15 14 14 15 15 14 14 14 13 12 11 11 11 11 11 10 9 9 8 8 7 6 6 6 6
15 14 12 10 9 7 6 6 5 5 4 4 4 4 5 6 6 6 6 4 6 10 12 11 9 8 8 7 5 5 5 6 7 8 9 11 12 11 9 13 16 19 20 19 19 19 17 16 17 17 18 18 17 17 17 16 15 15 15 15 15 15 16 17 18 18 17 16 16 15 13 12 12 11 11 10 9 8 7 6 6 6 6 7 7
14 12 11 9 8 7 6 5 5 4 4 5 5 5 6 6 7 6 5 5 5 8 11 10 10 10 9 8 7 7 8 9 10 10 12 13 13 12 10 14 19 21 21 20 19 19 18 17 18 18 18 18 17 17 17 17 15 16 16 16 16 17 19 20 20 20 18 17 16 15 13 12 11 11 10 9 8 7 6 6 6 7 7 8 9
12 11 10 9 8 7 6 5 4 4 4 5 5 5 6 7 7 6 5 5 5 7 11 11 10 11 10 10 10 11 13 13 13 14 15 15 15 14 12 13 20 23 21 20 19 19 19 19 18 17 17 17 17 18 18 17 16 16 17 17 18 19 20 20 20 19 17 16 15 14 12 11 10 9 8 7 7 7 6 7 8 8 9 10 11
12 10 10 9 8 7 6 5 4 5 5 5 5 6 7 7 7 6 6 6 5 7 11 12 12 12 11 12 13 14 15 15 16 18 18 17 17 16 14 14 19 24 22 20 19 18 20 20 18 17 17 17 17 18 19 18 16 16 17 17 18 19 19 19 18 17 16 15 14 13 12 10 10 9 9 8 8 8 8 9 9 10 11 12 13
12 11 10 9 8 6 5 5 5 5 5 5 6 7 8 8 8 7 6 6 5 7 11 13 13 12 11 12 14 15 16 17 19 20 19 19 18 17 16 14 18 23 22 20 18 17 19 19 18 16 16 17 16 18 19 18 17 16 17 17 17 17 17 17 16 16 15 15 14 13 12 11 10 10 10 10 10 10 10 11 11 12 12 13 14
13 11 10 9 8 6 6 6 6 6 6 6 7 8 9 9 8 7 6 6 7 8 10 13 13 13 12 12 13 15 16 18 20 21 21 20 19 18 17 15 17 21 21 19 18 17 17 18 18 16 15 15 16 18 20 19 17 17 16 16 16 16 15 15 15 14 14 15 14 13 12 12 11 12 12 12 12 12 12 12 13 14 14 15 16
13 11 11 10 9 8 8 8 8 8 8 7 8 10 10 10 9 8 7 7 8 8 10 12 13 13 13 13 14 16 17 19 20 21 21 20 20 19 17 16 16 19 19 19 19 18 16 17 18 17 15 15 16 18 19 18 17 16 16 15 15 15 14 14 13 13 14 14 13 13 13 12 13 13 13 13 13 13 14 14 15 15 16 17 18
12 11 11 11 10 9 9 8 8 9 8 8 9 11 11 10 9 9 8 8 8 9 11 12 12 12 14 15 16 18 19 20 20 21 21 20 20 19 18 17 15 16 17 18 20 19 17 17 18 18 16 16 17 18 17 16 16 15 15 14 13 13 13 13 13 13 13 13 13 13 13 13 13 13 14 14 14 15 16 16 17 17 18 19 20
12 12 11 11 11 10 8 7 8 9 8 9 10 11 10 10 9 9 9 9 9 10 12 13 12 13 15 17 19 19 20 22 22 22 23 21 20 19 18 17 15 14 14 15 17 19 19 17 17 17 16 16 17 17 16 15 15 14 14 13 12 12 12 12 12 13 13 13 14 14 14 13 14 14 15 16 16 17 18 18 19 20 21 21 21
12 12 12 11 11 10 8 7 8 8 9 10 11 11 10 10 9 10 10 10 10 10 12 13 11 13 15 17 20 20 21 24 25 25 24 23 20 19 18 17 16 14 13 12 13 17 19 18 17 17 15 15 16 15 15 15 14 13 12 11 11 11 11 11 12 13 14 14 14 14 14 14 15 16 17 18 19 20 21 22 22 22 22 22 21
12 12 12 12 11 10 9 8 9 9 10 11 11 11 11 10 10 11 12 11 11 10 12 12 12 14 15 15 16 18 21 22 24 25 24 22 20 19 17 16 16 15 14 13 13 15 17 16 16 16 15 14 14 14 13 13 13 12 11 10 10 11 11 12 13 14 14 14 14 14 15 16 17 19 20 21 22 23 23 23 23 22 22 21 20
12 12 12 12 11 10 10 10 10 10 11 11 12 12 11 11 12 12 12 12 11 11 12 13 14 15 15 14 13 15 18 18 20 21 20 20 19 18 17 16 16 16 16 15 15 15 15 15 15 14 14 14 14 14 13 13 13 12 11 11 11 12 12 13 14 14 15 15 15 16 17 18 20 21 23 24 24 24 24 23 22 21 21 20 19
13 12 12 11 11 11 10 10 10 10 11 11 12 12 12 13 14 13 12 12 12 12 12 13 14 15 15 15 14 15 17 17 18 18 18 18 17 17 17 17 16 16 16 15 15 14 15 15 14 14 14 15 15 14 14 13 13 12 12 11 12 13 13 14 14 15 16 16 17 19 20 21 23 24 24 24 24 24 23 22 21 20 19 18 17
13 12 12 11 11 11 10 10 10 10 11 12 12 13 14 14 14 13 12 13 13 13 13 13 14 14 15 15 15 16 17 17 18 18 17 17 16 16 16 17 16 16 15 15 14 13 14 14 14 14 14 14 14 13 13 13 12 12 12 12 13 13 14 15 15 16 17 18 20 21 23 24 25 25 24 24 23 22 21 20 19 18 17 15 14
13 12 12 11 11 11 10 10 9 10 11 12 13 14 15 14 13 13 13 14 14 13 13 13 13 14 15 16 16 16 17 17 17 17 17 17 16 16 16 16 16 16 15 15 14 14 14 14 14 14 14 14 13 13 13 12 12 12 12 12 13 14 15 16 17 18 19 21 22 23 24 25 24 24 23 22 21 21 20 18 17 16 15 13 12
13 13 12 11 11 10 10 11 10 10 11 12 13 14 15 14 13 13 14 14 14 13 13 13 14 14 15 15 15 16 16 17 17 17 17 17 17 16 16 16 16 15 15 15 15 14 14 14 13 13 13 13 13 13 13 13 12 12 13 13 14 14 16 17 19 20 21 23 24 24 24 24 23 22 21 21 20 19 18 16 15 14 13 11 10
13 13 12 11 10 10 11 11 11 11 11 12 13 14 14 14 13 13 14 14 14 13 13 14 14 14 15 15 15 15 15 16 16 17 17 17 16 15 15 15 15 15 15 15 15 15 14 13 13 13 13 12 13 13 14 14 14 14 14 14 15 16 17 20 21 23 23 24 24 24 23 23 22 21 20 19 18 17 16 14 13 12 11 10 10
13 12 12 11 10 10 11 11 12 12 12 12 13 14 14 13 13 13 13 14 14 14 13 14 14 14 14 14 14 14 14 15 15 16 16 15 15 14 15 15 15 15 15 15 15 14 14 13 13 13 13 13 13 13 14 15 15 16 16 16 17 18 20 22 23 24 24 24 23 23 22 21 21 20 19 17 16 15 13 12 12 11 10 10 10
13 13 12 11 11 10 11 11 12 12 13 13 13 14 13 13 13 13 13 13 14 14 13 13 13 13 14 14 13 14 14 14 15 15 15 14 14 14 15 15 15 14 14 14 15 14 13 12 12 12 13 13 13 13 14 15 16 17 18 18 19 20 21 23 24 24 24 23 22 22 21 20 19 18 17 15 14 13 12 11 11 10 10 10 10
13 13 12 12 11 11 11 11 11 12 13 13 14 14 14 14 14 13 13 13 13 13 13 13 13 14 14 14 13 13 14 14 14 14 14 14 14 15 15 15 14 14 14 14 14 13 12 11 11 12 12 13 13 13 14 16 17 18 19 20 21 22 23 23 24 24 23 22 21 20 20 19 17 16 15 13 12 12 11 11 10 10 10 10 10
13 13 13 12 12 11 11 11 11 12 12 12 13 13 14 14 14 13 13 13 13 13 13 13 13 14 14 13 12 13 14 14 13 13 13 13 13 14 14 14 13 13 13 13 12 11 11 11 11 11 12 12 12 13 14 16 17 19 20 21 22 23 24 24 23 23 22 22 21 19 18 17 15 14 13 12 12 11 11 11 10 11 11 11 12
14 13 13 13 12 11 11 11 12 12 12 12 12 12 13 13 13 13 13 13 13 13 13 13 13 14 14 13 12 12 12 13 13 12 12 12 12 12 12 12 12 12 12 11 11 11 10 10 11 11 11 11 11 13 14 16 17 19 20 21 22 23 23 23 22 22 21 21 19 18 16 15 13 13 12 12 12 11 11 11 12 12 13 13 14
14 13 13 13 12 11 12 12 11 11 12 12 12 12 12 12 12 11 12 12 12 12 12 12 12 12 13 13 12 11 11 11 12 12 12 11 11 11 11 11 10 10 10 11 11 10 10 10 10 10 10 11 11 12 14 15 17 18 20 21 22 23 23 22 21 21 20 19 18 16 15 14 13 13 12 12 11 11 12 13 13 14 15 16 16
14 13 13 13 12 11 12 12 12 11 11 11 11 11 12 12 11 10 11 11 12 12 12 12 12 12 12 12 11 11 10 10 11 11 11 11 10 10 10 10 9 9 9 9 10 10 9 9 8 9 10 11 11 11 12 14 15 18 20 21 21 22 22 21 20 20 19 18 16 15 14 13 13 13 12 12 12 12 13 14 15 16 16 17 17
14 13 13 12 12 11 12 12 12 11 11 11 11 11 11 10 10 10 10 11 11 12 12 12 12 12 12 11 11 10 10 9 10 10 10 10 10 10 10 10 10 10 9 8 9 9 8 8 8 8 10 10 10 10 10 11 14 17 20 21 21 21 21 20 19 19 18 17 15 14 13 13 13 12 12 12 13 14 15 16 16 16 17 17 18
13 13 12 12 12 12 12 12 12 11 11 10 11 10 10 9 9 10 10 11 11 11 12 12 12 12 12 11 10 10 9 9 9 9 10 10 10 10 9 10 10 10 9 8 8 8 8 8 8 9 9 10 10 10 9 10 13 17 19 20 20 20 20 19 19 19 17 15 14 13 13 13 13 12 12 13 14 15 16 17 17 16 17 17 18
13 13 13 12 12 12 12 12 12 11 11 11 11 10 9 9 9 9 10 10 10 11 12 12 12 11 11 11 10 10 9 9 9 9 9 9 9 9 9 9 9 9 8 8 8 8 8 8 9 9 9 10 10 10 9 9 12 16 18 19 19 19 18 18 18 18 16 14 13 12 12 12 12 12 13 13 15 16 16 17 17 17 17 17 17
14 13 14 13 13 12 12 12 12 12 11 11 11 10 9 9 8 8 9 9 10 10 11 11 11 10 11 10 10 9 9 9 9 9 9 9 9 9 8 8 8 7 8 7 7 8 8 9 9 9 9 9 10 9 9 9 12 15 18 18 18 18 17 17 17 17 14 13 12 12 11 11 11 11 12 13 14 15 16 16 16 17 17 16 16
15 14 14 14 13 13 13 12 12 12 11 10 10 9 9 8 8 8 8 8 9 10 10 11 10 10 10 10 10 9 9 9 9 9 9 9 9 8 8 7 6 7 7 7 7 8 8 8 9 9 9 9 9 9 8 9 11 14 17 18 17 17 16 16 16 15 13 12 11 11 10 10 10 10 11 12 13 14 14 15 16 16 17 16 16
16 16 15 14 14 13 12 12 12 12 11 9 9 8 8 8 7 7 7 8 8 9 10 10 10 9 10 10 10 9 9 9 9 9 9 9 9 8 8 7 6 6 6 6 7 7 8 8 8 8 8 8 9 8 7 8 10 13 16 17 16 16 15 15 15 14 12 11 10 9 9 9 9 9 9 10 12 13 13 14 15 15 15 15 15
16 16 15 14 14 13 13 13 12 12 11 10 9 8 8 8 7 7 7 7 8 9 10 10 9 9 9 9 9 9 9 9 8 8 8 8 8 8 8 7 6 6 5 5 5 6 7 7 7 8 8 8 8 7 6 7 10 13 15 16 16 15 15 14 14 12 11 10 9 9 8 8 8 8 8 9 10 11 11 12 13 13 14 14 14
16 16 15 14 14 13 13 13 13 13 12 11 10 9 9 8 7 7 7 7 7 7 8 8 8 8 8 8 9 8 8 8 8 7 7 7 7 7 6 6 6 5 5 5 5 4 5 6 7 7 7 8 7 7 6 7 9 12 15 16 15 15 14 13 12 11 10 9 9 8 7 7 7 7 6 7 8 9 10 10 10 11 12 12 12
16 16 16 15 13 13 13 13 14 14 13 13 12 10 9 8 8 8 8 7 6 6 6 6 7 7 7 8 8 8 7 7 7 7 6 6 6 6 5 5 5 5 5 5 4 4 4 6 7 6 6 7 7 7 7 7 9 12 14 15 15 14 14 12 11 10 9 8 8 7 6 6 6 5 5 5 6 7 8 8 8 9 9 10 10
17 17 17 15 14 13 12 13 14 15 14 14 13 12 10 9 8 6 6 6 6 7 7 6 6 7 7 7 7 7 7 6 6 6 6 6 6 6 6 6 6 5 5 4 5 5 4 5 6 6 6 6 6 7 7 7 8 10 13 15 15 14 13 13 11 10 9 8 7 6 5 5 5 4 3 3 4 5 6 6 7 7 7 8 8
17 17 17 17 15 14 12 13 14 14 15 14 14 12 11 9 8 6 7 7 7 8 8 7 7 7 7 7 6 6 6 5 5 5 5 5 6 6 6 6 6 6 5 5 5 5 5 5 5 6 5 5 6 7 7 6 7 9 11 13 14 14 13 13 12 11 10 8 7 6 5 5 4 3 2 2 3 3 4 5 5 5 6 6 6
18 18 18 18 18 16 14 14 14 14 15 14 13 12 11 10 9 9 9 8 8 8 7 7 6 6 6 5 5 5 5 5 4 4 5 5 5 5 6 6 6 6 5 5 5 6 6 6 6 6 5 5 5 6 6 6 6 8 10 12 13 13 13 13 12 12 11 9 7 6 5 5 4 4 3 2 2 2 3 3 4 4 4 5 5
18 19 19 18 18 17 15 15 14 14 14 14 13 12 11 10 10 10 10 9 9 8 8 8 6 5 5 4 4 3 3 4 4 4 4 4 5 5 6 6 6 6 6 6 6 6 6 6 6 6 5 5 5 4 5 6 6 7 8 10 12 13 13 13 12 12 12 10 8 7 7 6 6 5 3 2 2 1 1 2 3 4 3 4 4
18 19 19 18 18 18 16 16 15 14 14 14 13 12 12 11 11 11 10 9 9 8 8 8 7 6 5 4 3 3 3 3 3 3 4 4 4 5 5 6 6 6 6 6 7 7 7 7 6 6 6 5 5 4 4 5 5 6 7 8 11 13 14 14 12 12 12 12 10 9 8 7 7 6 5 3 2 1 0 1 2 3 3 3 4
16 18 19 19 18 18 17 16 16 15 14 14 13 12 12 12 12 11 11 9 8 7 7 6 6 6 5 4 3 3 2 3 3 3 3 3 4 4 4 5 6 6 6 6 7 8 8 7 6 6 6 5 5 5 5 5 5 5 5 6 9 12 13 14 13 13 13 13 12 11 9 9 8 7 6 5 3 3 1 0 1 2 2 3 4
15 17 18 19 19 19 18 17 16 16 15 14 13 13 13 13 12 12 11 10 8 7 6 6 5 5 5 5 4 3 2 2 2 2 3 3 3 3 4 4 5 6 7 7 6 6 6 6 5 6 6 5 5 6 6 6 6 5 5 5 7 10 12 13 13 13 13 13 13 13 11 10 9 9 8 7 5 4 3 2 1 1 2 4 5
Wind_Direction
130 132 133 136 135 134 136 136 132 130 127 126 121 114 108 102 104 104 107 109 113 112 112 114 112 116 125 146 129 139 164 204 226 219 210 199 192 184 178 168 156 139 141 139 121 111 102 100 96 94 97 104 109 109 108 105 104 105 107 109 109 111 113 112 110 108 111 113 110 104 97 93 91 91 88 86 84 82 79 76 76 77 80 82 83
130 133 136 137 136 136 138 137 133 132 130 126 119 113 108 104 105 104 110 114 122 125 123 126 129 144 169 206 208 188 186 203 217 220 216 210 203 193 186 176 161 149 144 137 126 120 116 116 108 100 101 108 111 110 111 109 106 106 107 109 112 114 114 111 110 110 114 117 112 105 98 93 90 88 86 83 78 76 75 74 76 78 79 79 80
133 136 138 137 137 138 138 137 133 131 127 122 117 113 110 111 113 116 129 137 143 155 165 173 183 181 184 191 193 181 178 190 202 211 210 207 204 197 187 171 162 155 148 147 143 133 128 124 113 106 107 111 110 108 109 109 106 104 105 109 111 111 111 110 111 111 113 119 113 105 98 92 89 87 84 80 77 77 76 75 75 76 78 78 80
136 138 139 139 138 139 138 135 130 126 123 118 116 116 118 119 122 134 156 163 162 177 184 189 184 172 167 153 150 155 161 174 180 188 194 193 186 184 176 165 165 159 150 149 146 139 136 128 113 105 107 111 110 109 108 107 106 102 103 106 108 111 113 111 112 111 117 122 113 107 101 91 89 88 83 77 76 79 79 78 78 78 79 80 81
137 139 141 140 138 138 136 131 125 121 119 116 119 121 120 113 106 119 109 101 96 96 129 153 148 139 135 128 128 133 141 150 155 159 166 163 159 160 158 158 161 163 157 146 144 144 140 128 113 107 108 110 109 109 108 107 106 102 101 104 108 112 116 116 118 121 126 125 113 107 100 92 88 86 83 79 78 81 82 81 83 82 81 83 83
138 140 142 142 139 136 133 127 121 119 121 123 125 117 105 99 96 94 88 84 65 76 102 124 130 127 126 123 118 120 129 138 139 142 147 147 144 147 150 152 156 167 158 138 139 141 137 129 117 115 113 109 108 108 109 109 106 102 100 101 105 109 114 118 121 122 123 121 113 104 100 96 89 84 84 85 82 82 83 80 81 83 83 84 85
140 141 143 143 139 134 130 124 123 126 129 127 119 110 106 105 104 102 97 91 82 97 107 115 125 123 122 123 122 123 131 139 140 140 143 146 143 146 150 152 158 162 145 125 129 128 128 128 122 121 115 109 109 108 108 107 104 102 99 98 100 102 104 107 109 112 115 114 110 100 99 96 89 86 85 87 86 83 82 81 80 80 81 82 84
141 141 143 142 138 133 130 127 131 135 132 128 122 116 112 111 110 113 113 116 112 111 115 116 116 114 119 123 128 136 143 151 147 142 142 144 143 146 150 153 157 144 125 116 118 118 118 120 119 118 116 112 109 107 106 104 101 99 98 96 96 96 95 95 97 103 107 110 109 103 100 95 89 90 89 89 91 88 85 87 85 82 82 83 85
141 140 142 140 138 135 135 137 140 136 130 127 121 119 115 118 121 128 131 134 133 126 123 120 111 106 114 116 119 132 143 152 145 142 142 142 142 147 150 150 142 120 114 115 115 116 117 116 114 114 116 112 105 105 105 102 100 98 96 95 94 94 95 95 96 98 101 104 103 100 98 95 92 94 93 92 93 93 92 91 88 85 83 82 83
140 140 141 140 141 141 142 144 140 130 123 116 111 119 123 132 136 135 139 145 141 133 122 117 109 101 104 102 105 120 127 139 137 136 142 145 142 147 151 144 129 113 114 117 115 114 113 114 113 114 116 109 105 106 103 100 98 97 95 94 94 93 95 97 98 98 97 96 95 94 92 92 96 99 100 98 96 96 95 90 86 83 80 77 78
140 142 143 144 144 142 143 140 133 123 113 109 111 124 132 139 139 136 142 148 133 120 112 109 103 98 104 103 108 128 130 134 135 139 145 146 141 145 148 134 118 111 113 113 110 111 111 113 114 115 115 111 110 109 102 99 97 96 95 94 94 92 93 95 97 96 94 94 95 95 93 93 96 100 101 101 98 94 91 88 84 80 76 75 76
142 143 144 144 142 138 138 133 127 119 116 115 122 128 129 133 134 136 137 122 105 104 103 103 97 90 99 106 117 133 133 134 138 144 144 141 136 138 138 123 112 108 112 112 110 112 114 115 114 113 113 115 116 113 107 102 98 95 94 94 93 92 92 93 95 94 93 93 92 92 92 93 94 96 96 95 94 90 88 85 81 76 76 79 80
143 143 143 140 135 134 134 132 131 129 128 125 129 127 126 131 132 129 120 105 99 101 99 98 94 88 95 105 115 126 129 130 133 136 135 134 128 128 127 116 110 107 109 113 113 112 113 115 112 110 113 117 116 113 108 102 98 95 93 93 93 94 94 94 95 93 92 90 89 89 90 91 90 90 91 90 90 87 84 81 79 79 81 82 79
143 142 138 134 132 135 136 138 141 139 136 131 129 127 128 131 129 123 113 109 108 104 99 95 92 93 99 104 109 121 128 126 126 127 128 127 123 122 117 109 109 109 109 111 113 110 111 113 111 109 111 115 116 113 109 103 97 94 92 91 94 96 96 96 93 91 88 86 86 87 86 86 86 88 89 87 85 83 81 81 81 82 82 78 74
141 137 132 129 130 136 140 144 146 140 135 135 132 130 134 134 131 126 116 112 113 100 94 92 91 95 97 100 109 119 123 121 121 121 122 122 120 118 113 108 108 109 109 110 112 111 112 112 111 111 112 113 114 113 109 102 97 93 92 91 95 98 98 96 92 89 86 84 83 82 82 83 86 87 87 84 81 81 82 83 83 81 78 75 74
136 131 126 123 126 130 137 143 144 140 135 136 136 135 137 135 131 124 117 113 104 83 82 88 89 93 94 96 109 118 120 120 120 120 120 120 119 118 115 110 105 105 109 111 111 112 113 112 111 108 109 110 113 116 109 101 98 95 93 93 96 99 100 97 93 88 85 83 81 81 81 83 85 85 86 85 85 85 86 86 83 79 76 76 78
133 127 124 121 120 121 128 136 138 137 134 136 138 139 136 130 123 118 116 110 95 78 79 87 88 92 95 99 110 116 119 120 120 120 120 120 120 119 116 110 103 104 110 113 112 111 111 112 112 108 107 110 114 114 107 101 98 96 95 94 96 99 100 97 91 86 83 83 82 83 83 85 87 87 88 88 89 88 86 84 80 78 79 81 84
131 125 124 121 116 118 125 132 133 130 131 135 136 135 130 124 120 115 116 114 107 98 89 88 91 95 98 103 111 116 119 120 120 120 119 120 119 118 115 110 107 109 113 116 115 112 108 107 109 110 111 108 103 98 97 99 99 98 98 97 98 100 98 93 87 83 83 84 84 85 85 87 88 88 89 89 89 86 83 81 80 82 83 86 87
131 128 125 120 116 118 125 130 127 128 131 132 131 129 125 121 119 117 121 120 114 107 97 94 96 96 99 103 107 115 121 122 121 121 120 119 119 118 116 114 113 113 115 118 118 115 110 103 102 105 104 100 97 97 99 102 102 101 101 100 100 98 94 89 84 83 84 86 86 86 86 86 87 87 87 86 85 83 83 82 84 85 86 88 89
133 129 122 116 115 115 119 122 121 127 130 128 127 127 127 123 121 121 125 120 113 109 103 99 97 97 103 109 112 115 120 123 125 124 121 120 122 120 118 115 114 110 108 111 111 109 107 103 99 101 101 99 100 103 106 105 104 105 104 103 99 95 91 85 83 84 85 86 85 84 83 84 85 85 84 84 83 83 84 85 86 87 88 89 90
132 125 117 113 112 113 114 113 115 124 127 127 127 129 131 130 126 126 124 117 111 107 102 98 95 100 105 110 115 119 121 123 126 127 124 123 124 121 118 116 113 110 104 100 96 96 99 101 99 101 102 101 101 104 106 106 106 106 104 102 99 94 89 85 85 87 87 85 83 82 81 82 83 84 84 84 85 85 86 87 88 88 89 90 90
126 120 115 113 112 112 112 108 109 117 126 129 129 131 133 131 131 130 124 116 112 107 101 98 96 100 100 101 109 117 119 120 120 124 125 123 121 117 116 113 109 108 106 101 94 91 93 95 96 98 99 99 101 104 104 103 104 105 103 101 96 91 88 89 90 90 88 85 83 82 82 83 84 85 86 87 87 87 88 89 90 91 91 92 92
122 119 116 115 114 111 109 107 107 114 124 129 128 131 132 131 132 128 120 116 117 112 105 102 100 101 102 103 106 106 109 111 111 113 115 114 113 113 112 108 104 104 106 104 100 97 96 96 96 97 99 98 99 100 98 97 99 101 100 97 93 90 91 92 93 91 89 87 86 86 86 86 87 88 89 89 90 90 91 92 92 93 93 93 93
122 120 118 115 112 110 108 106 106 112 123 130 130 130 131 130 128 123 120 122 123 118 112 107 105 106 106 107 107 104 106 109 108 109 108 108 110 111 110 107 106 107 106 105 103 101 100 101 102 100 98 97 94 94 94 94 96 96 96 95 93 93 94 95 94 92 90 89 89 89 90 90 91 91 91 92 93 93 93 94 94 94 95 94 94
123 120 117 115 112 109 108 106 106 112 122 131 131 130 130 128 125 122 121 124 123 118 112 109 108 108 107 107 109 111 114 114 113 114 112 110 110 110 109 109 110 110 110 108 106 104 104 104 104 100 96 91 89 88 89 91 93 93 93 93 94 96 97 96 94 92 91 91 92 92 93 93 93 93 93 94 94 94 95 96 96 96 96 96 95
125 121 117 114 112 110 108 107 105 111 121 129 131 130 129 128 124 121 121 121 120 116 113 113 114 113 112 112 113 114 116 117 116 115 114 112 111 111 111 112 113 113 114 112 111 108 106 104 102 100 95 91 86 83 81 84 88 90 92 94 97 99 99 98 96 94 94 95 95 95 95 95 95 95 95 95 96 96 97 98 98 97 96 95 94
127 123 120 116 114 113 112 109 106 110 120 127 130 130 129 129 125 119 118 119 118 117 116 118 119 118 117 116 116 117 117 117 118 117 117 116 116 115 114 114 114 113 113 112 110 107 103 102 101 99 95 92 86 81 80 84 91 96 98 99 100 101 101 100 98 98 97 98 98 98 98 97 97 97 96 97 98 99 99 99 98 97 95 93 89
129 124 122 120 119 119 117 113 108 108 116 125 129 129 130 128 125 119 117 118 118 118 119 119 119 119 119 120 120 120 120 120 120 119 119 118 117 116 114 113 112 112 111 108 106 104 101 100 97 95 91 89 85 81 81 86 93 99 101 101 101 102 102 101 101 101 100 100 100 100 99 99 98 97 97 98 99 99 98 97 96 93 89 84 76
131 127 126 124 125 126 124 117 110 108 112 122 126 127 129 127 124 121 119 119 119 120 121 120 118 119 120 120 122 122 123 123 122 121 119 118 117 117 115 113 112 110 107 104 102 100 97 94 91 89 87 86 85 84 85 88 93 99 102 104 103 103 103 103 103 103 102 102 102 101 100 99 98 98 99 99 98 97 96 93 88 82 75 67 59
135 131 132 129 129 131 129 122 114 113 113 117 122 124 126 126 125 124 124 124 124 123 122 121 120 120 120 121 123 125 125 125 124 123 121 121 120 119 118 115 112 109 106 102 99 96 93 91 88 87 86 84 84 84 86 90 96 101 105 106 105 105 105 105 105 105 104 102 101 100 100 99 99 99 100 99 97 95 90 84 76 69 62 56 50
139 135 136 134 134 133 131 126 120 118 117 117 118 119 120 122 125 127 128 129 130 129 126 124 122 122 121 121 125 128 128 126 125 125 124 124 123 122 119 117 115 112 108 104 99 96 94 91 89 86 83 83 83 84 87 92 98 104 106 107 108 108 108 108 107 107 105 103 101 99 99 99 100 101 100 97 93 87 80 74 68 61 55 50 46
141 139 139 137 136 135 132 129 126 124 123 122 119 118 117 118 122 124 125 126 128 131 130 128 127 127 125 124 127 130 130 128 127 127 126 125 124 123 121 119 118 114 108 104 102 99 96 95 94 90 84 82 83 86 89 94 100 105 107 110 111 112 112 111 110 109 108 105 103 101 101 102 102 101 96 91 84 78 74 68 64 58 54 51 49
146 142 141 140 138 137 134 130 130 130 129 128 126 124 122 121 121 121 121 121 125 130 133 132 131 132 131 131 132 132 131 129 129 129 128 127 127 126 124 121 116 112 108 106 104 101 99 99 98 95 91 89 87 89 92 96 101 106 109 112 114 115 115 114 113 111 109 107 106 104 104 104 100 96 90 84 79 74 70 66 63 60 58 57 55
150 146 144 142 142 138 135 134 134 134 133 131 132 131 129 128 127 126 123 121 124 128 132 134 136 136 136 137 138 137 133 131 131 131 132 131 131 130 126 120 116 113 111 109 106 101 98 98 97 96 97 96 90 88 93 99 105 110 114 116 117 118 118 117 115 112 111 109 109 107 105 102 97 91 86 81 77 73 69 66 64 62 60 59 57
150 150 148 145 144 140 139 139 137 138 137 136 136 135 135 135 133 133 131 128 126 126 128 130 135 138 139 140 141 139 136 135 134 134 136 136 135 133 128 123 120 116 113 109 103 97 94 94 96 96 97 97 92 87 91 101 110 116 120 121 121 122 121 119 117 115 113 112 111 108 104 101 96 91 86 82 78 74 70 67 64 61 60 59 58
155 154 152 149 147 145 143 142 142 143 143 141 140 140 139 140 139 139 139 137 134 130 128 128 131 136 138 140 141 140 138 138 137 136 138 139 137 134 130 127 123 118 114 109 102 98 96 94 94 95 94 96 99 96 96 105 116 121 124 125 126 126 125 123 120 117 116 116 112 108 105 101 96 92 88 85 80 75 71 67 64 62 61 61 61
163 158 152 153 152 149 146 146 147 148 149 145 142 143 144 144 146 146 144 142 141 138 136 133 132 133 135 138 139 140 139 139 140 139 138 137 136 135 132 129 125 121 117 113 110 108 104 100 98 96 94 96 102 105 108 112 121 126 128 130 130 130 128 127 123 121 120 117 111 108 106 102 99 95 90 85 81 76 72 68 66 64 63 63 62
169 161 156 158 159 155 152 154 154 152 154 149 146 148 150 150 148 148 146 144 144 143 142 140 137 135 136 137 137 138 139 142 144 142 139 137 137 137 135 132 128 125 123 121 120 116 114 111 106 101 98 99 100 105 115 122 127 131 133 134 134 133 131 129 126 124 123 116 111 108 107 104 100 96 91 86 81 77 73 70 67 65 64 63 63
173 167 162 163 165 163 161 162 159 156 158 154 150 150 150 149 146 145 144 142 143 144 146 146 145 142 140 139 139 138 140 145 148 146 143 141 141 141 140 139 138 136 133 129 124 121 120 117 111 104 99 99 100 105 115 127 133 136 137 138 137 136 134 131 129 127 124 116 112 111 109 105 101 97 92 88 83 78 74 71 69 66 65 64 65
176 175 170 166 170 172 168 167 163 160 160 153 148 146 144 143 142 143 142 141 141 144 147 151 153 150 146 145 145 145 147 149 150 148 146 144 144 142 142 146 149 148 143 136 129 126 123 115 110 103 97 98 102 106 114 127 136 140 142 142 141 139 136 134 132 130 125 116 113 113 111 107 102 98 93 89 84 79 76 73 70 67 65 67 69
178 180 176 169 173 177 174 171 167 161 156 149 143 140 137 135 138 142 142 143 143 145 150 153 157 156 152 151 150 152 155 155 154 152 150 148 145 143 146 152 154 151 150 146 137 131 121 111 105 100 98 101 102 103 111 125 138 145 147 146 144 143 140 138 135 134 128 119 116 115 114 110 105 100 94 90 86 81 78 74 72 69 68 69 72
180 183 180 174 175 178 178 176 168 159 155 150 147 146 144 141 143 144 145 150 151 152 153 156 160 160 157 154 152 155 157 156 154 154 154 151 149 148 150 153 153 154 157 155 149 135 119 112 107 102 104 107 104 102 110 125 141 150 152 150 149 148 145 143 140 138 133 125 121 120 119 115 108 102 95 89 86 83 80 75 73 73 72 72 72
184 186 185 180 177 179 180 177 168 161 158 154 154 159 157 153 157 158 156 158 157 155 155 160 162 160 160 157 154 156 155 152 151 155 159 157 157 155 153 152 154 159 166 165 161 145 124 119 114 107 112 115 110 106 107 124 143 153 157 155 154 153 150 147 144 143 141 133 128 124 121 118 112 105 97 88 84 82 79 75 75 77 77 76 74
187 187 189 185 180 180 182 178 171 165 161 158 163 171 168 165 171 170 160 155 155 153 154 162 162 158 161 162 158 158 157 156 154 156 160 164 169 169 164 163 163 169 176 176 171 158 140 130 120 115 120 120 117 111 105 117 139 152 159 158 157 157 155 153 152 152 151 144 133 127 124 121 115 105 98 89 82 80 78 76 79 81 82 81 76
190 187 189 187 183 183 182 181 178 171 166 164 170 177 175 170 174 168 144 135 139 144 149 159 162 161 162 165 163 161 162 162 158 157 162 170 180 183 183 182 182 182 180 179 176 170 160 145 131 128 132 129 126 118 107 110 132 150 160 160 160 161 161 161 162 164 164 158 147 138 133 126 117 111 107 97 84 80 78 79 82 84 85 83 77
193 190 190 188 187 186 183 185 186 179 173 171 175 179 176 170 169 154 129 127 136 142 151 157 160 162 163 167 168 165 167 169 168 168 171 179 183 188 191 194 197 191 182 181 180 178 175 164 152 145 144 144 138 125 113 109 123 145 159 163 164 166 168 170 172 174 174 173 166 154 149 140 134 144 146 116 93 83 78 80 87 88 87 84 76
192 194 194 190 188 188 185 188 193 189 182 178 177 178 175 169 167 156 144 145 149 148 153 151 150 158 159 164 169 170 176 181 184 181 179 185 189 191 195 200 204 195 187 187 182 181 182 176 167 158 157 161 150 131 125 124 124 138 157 166 169 172 176 179 180 180 180 182 182 174 168 165 166 177 178 152 115 90 80 81 87 88 86 82 74
190 196 198 193 190 190 187 189 195 195 191 185 180 177 174 171 168 164 159 161 161 157 154 146 141 145 147 153 165 172 181 186 188 183 182 189 191 193 196 201 204 198 192 190 184 183 184 184 179 170 169 171 162 147 143 147 141 141 155 168 174 177 181 186 189 188 187 189 194 190 184 182 182 190 197 182 158 126 85 75 81 82 78 71 63
187 193 198 198 195 194 190 191 196 198 195 192 187 180 178 177 173 172 173 174 172 164 155 147 143 141 137 141 151 164 182 183 183 185 184 189 189 191 195 200 202 201 198 193 189 186 184 188 187 176 174 175 172 168 170 173 163 151 156 169 179 183 185 189 194 196 194 197 202 202 198 195 192 197 205 204 192 197 141 59 68 67 59 49 39
181 186 194 199 200 199 196 195 197 200 198 195 194 189 185 184 180 179 183 184 182 171 159 151 147 144 139 140 145 158 182 183 186 191 185 182 187 192 198 201 199 200 200 198 196 192 187 189 189 182 179 180 179 179 186 193 184 169 164 169 182 189 190 192 197 201 201 203 207 211 211 207 203 202 206 211 213 217 230 321 42 43 27 17 13
177 182 190 197 200 201 200 199 199 202 200 196 196 196 192 190 186 186 189 190 188 180 168 161 158 154 152 150 148 154 173 182 194 205 195 184 186 192 195 195 194 195 196 199 201 198 195 195 194 194 193 190 188 187 192 197 196 191 184 180 185 192 195 196 200 204 206 208 212 215 217 215 213 211 210 213 221 226 231 255 292 336 348 348 350
Height
3188 3190 3190 3191 3191 3192 3193 3194 3194 3195 3196 3197 3198 3199 3200 3201 3202 3203 3205 3205 3205 3205 3205 3206 3206 3206 3205 3205 3206 3206 3206 3205 3205 3205 3205 3205 3205 3205 3205 3206 3207 3207 3207 3208 3208 3209 3209 3209 3210 3210 3210 3211 3211 3212 3212 3212 3213 3213 3213 3213 3214 3214 3215 3215 3216 3217 3217 3217 3218 3218 3218 3218 3218 3218 3218 3218 3218 3217 3217 3217 3217 3218 3218 3218 3217
3190 3191 3191 3192 3192 3193 3194 3195 3195 3196 3197 3198 3199 3200 3201 3202 3203 3204 3205 3205 3206 3205 3205 3206 3206 3206 3205 3205 3205 3206 3206 3205 3205 3205 3205 3205 3205 3205 3205 3206 3207 3208 3208 3208 3208 3209 3210 3210 3210 3211 3211 3212 3212 3213 3213 3213 3214 3214 3214 3215 3215 3215 3216 3217 3217 3218 3218 3219 3219 3219 3219 3219 3219 3219 3219 3219 3219 3219 3218 3219 3219 3219 3219 3219 3219
3191 3192 3193 3193 3194 3194 3195 3196 3196 3197 3198 3199 3200 3201 3202 3202 3203 3204 3205 3205 3205 3205 3205 3205 3205 3205 3205 3205 3205 3206 3206 3205 3205 3205 3205 3205 3206 3206 3206 3206 3207 3208 3209 3209 3209 3209 3210 3210 3211 3212 3212 3213 3213 3214 3214 3215 3215 3215 3215 3216 3216 3216 3217 3218 3218 3219 3219 3220 3220 3220 3220 3220 3220 3220 3220 3220 3220 3220 3220 3220 3220 3220 3220 3220 3220
3192 3193 3194 3194 3195 3196 3196 3197 3198 3199 3199 3200 3201 3202 3202 3203 3204 3204 3204 3204 3204 3204 3205 3205 3205 3205 3205 3205 3205 3206 3206 3206 3205 3205 3205 3205 3206 3206 3206 3206 3206 3208 3210 3210 3210 3210 3210 3211 3212 3213 3213 3213 3214 3215 3216 3216 3216 3216 3216 3216 3217 3218 3218 3219 3219 3220 3220 3221 3221 3221 3221 3221 3221 3221 3221 3221 3221 3221 3221 3221 3222 3222 3221 3221 3221
3193 3194 3195 3196 3197 3197 3197 3198 3199 3200 3200 3201 3202 3202 3203 3203 3204 3204 3203 3203 3203 3204 3204 3205 3205 3205 3205 3205 3205 3206 3206 3206 3206 3206 3205 3205 3206 3206 3206 3206 3206 3207 3209 3210 3210 3210 3211 3212 3213 3214 3214 3215 3215 3216 3216 3217 3217 3218 3218 3218 3218 3219 3219 3220 3220 3221 3222 3222 3222 3223 3222 3222 3222 3222 3223 3223 3223 3223 3223 3223 3223 3222 3222 3222 3222
3194 3195 3196 3197 3198 3198 3199 3199 3200 3201 3202 3202 3203 3203 3204 3204 3204 3204 3203 3203 3204 3204 3204 3205 3205 3205 3206 3206 3206 3206 3206 3207 3207 3207 3206 3206 3206 3206 3206 3207 3206 3206 3207 3209 3211 3212 3213 3214 3214 3215 3216 3216 3217 3217 3217 3218 3218 3219 3219 3220 3220 3220 3221 3221 3221 3222 3223 3223 3223 3224 3224 3224 3223 3224 3224 3224 3224 3224 3224 3224 3223 3223 3223 3222 3223
3195 3196 3198 3198 3199 3200 3200 3201 3202 3202 3203 3203 3204 3204 3204 3204 3204 3204 3204 3204 3204 3205 3205 3205 3205 3206 3206 3207 3207 3207 3207 3207 3207 3207 3207 3207 3207 3207 3207 3207 3206 3206 3208 3211 3212 3214 3214 3215 3216 3216 3217 3217 3218 3218 3218 3219 3219 3220 3220 3221 3221 3221 3222 3222 3223 3223 3223 3223 3224 3224 3225 3225 3225 3225 3224 3224 3225 3224 3224 3224 3224 3224 3224 3224 3224
3196 3198 3199 3200 3200 3201 3202 3202 3203 3203 3204 3204 3205 3205 3205 3205 3205 3204 3204 3204 3205 3205 3206 3205 3206 3207 3207 3207 3207 3208 3207 3207 3207 3208 3207 3208 3207 3207 3207 3206 3206 3209 3211 3213 3213 3214 3215 3216 3217 3218 3218 3219 3219 3220 3220 3221 3221 3221 3221 3222 3222 3223 3223 3223 3224 3224 3224 3224 3225 3225 3225 3225 3226 3226 3225 3225 3226 3226 3225 3225 3225 3225 3225 3225 3225
3198 3199 3200 3201 3201 3202 3203 3203 3204 3204 3205 3205 3206 3206 3206 3206 3205 3205 3205 3205 3205 3206 3207 3206 3207 3207 3207 3207 3208 3208 3207 3207 3208 3208 3208 3208 3208 3208 3207 3206 3208 3212 3213 3213 3214 3215 3216 3216 3218 3219 3220 3220 3220 3221 3222 3222 3222 3222 3222 3223 3223 3224 3224 3224 3225 3225 3225 3226 3226 3226 3226 3226 3226 3226 3226 3226 3226 3226 3226 3226 3226 3226 3226 3226 3225
3199 3200 3201 3202 3203 3203 3204 3204 3205 3205 3205 3206 3206 3206 3206 3206 3206 3206 3206 3205 3206 3207 3207 3207 3208 3208 3208 3208 3208 3208 3207 3207 3208 3208 3209 3209 3209 3209 3208 3208 3211 3214 3214 3214 3215 3217 3217 3217 3219 3220 3221 3220 3221 3223 3223 3224 3224 3224 3224 3224 3225 3225 3225 3225 3225 3226 3226 3227 3227 3227 3227 3227 3227 3227 3227 3227 3227 3227 3227 3227 3227 3227 3227 3226 3226
3200 3201 3202 3203 3204 3204 3205 3205 3205 3206 3206 3206 3207 3207 3207 3207 3207 3206 3206 3205 3207 3209 3209 3208 3209 3209 3209 3209 3208 3208 3208 3208 3209 3209 3209 3210 3210 3210 3210 3212 3215 3215 3215 3215 3216 3218 3218 3218 3219 3221 3221 3221 3222 3224 3225 3225 3226 3226 3225 3225 3226 3226 3226 3226 3226 3227 3227 3228 3228 3228 3228 3227 3227 3227 3227 3228 3228 3228 3228 3228 3228 3228 3227 3227 3227
3202 3203 3204 3204 3205 3205 3205 3206 3206 3206 3207 3207 3207 3208 3208 3207 3207 3207 3206 3205 3206 3209 3210 3209 3210 3210 3210 3210 3209 3209 3209 3209 3210 3210 3210 3210 3211 3211 3210 3213 3217 3217 3216 3217 3218 3219 3219 3220 3220 3221 3222 3223 3224 3225 3226 3227 3227 3227 3227 3227 3227 3227 3227 3227 3227 3228 3228 3228 3228 3228 3228 3228 3228 3228 3228 3229 3229 3229 3229 3229 3229 3228 3228 3228 3228
3203 3204 3205 3205 3205 3206 3206 3207 3207 3207 3207 3208 3208 3208 3208 3208 3208 3207 3207 3206 3206 3209 3210 3210 3210 3211 3211 3211 3211 3210 3210 3210 3211 3211 3211 3211 3212 3211 3210 3212 3218 3218 3217 3219 3220 3221 3221 3222 3222 3223 3224 3225 3226 3226 3227 3228 3229 3229 3228 3228 3228 3228 3228 3228 3229 3229 3229 3229 3229 3229 3229 3229 3229 3229 3229 3230 3229 3229 3229 3229 3229 3229 3229 3229 3228
3205 3205 3206 3206 3206 3207 3207 3207 3208 3208 3208 3208 3208 3209 3209 3209 3209 3209 3208 3208 3207 3208 3211 3211 3211 3212 3212 3212 3212 3212 3212 3212 3212 3212 3213 3213 3213 3213 3211 3213 3218 3220 3219 3221 3221 3222 3222 3223 3224 3224 3225 3226 3227 3228 3229 3230 3230 3230 3229 3229 3229 3230 3230 3230 3230 3230 3230 3230 3231 3231 3230 3230 3230 3230 3230 3230 3230 3230 3230 3230 3230 3230 3230 3230 3229
3206 3206 3207 3207 3207 3207 3208 3208 3208 3209 3209 3209 3209 3210 3210 3210 3210 3210 3209 3208 3207 3208 3212 3213 3213 3213 3213 3213 3213 3213 3213 3213 3213 3214 3214 3214 3214 3215 3213 3214 3219 3222 3221 3222 3222 3223 3224 3225 3225 3226 3227 3228 3229 3230 3231 3231 3231 3231 3231 3231 3231 3231 3231 3231 3231 3231 3231 3232 3232 3231 3231 3231 3231 3231 3231 3231 3231 3231 3231 3231 3231 3231 3231 3230 3230
3206 3207 3208 3208 3208 3209 3209 3209 3209 3210 3210 3210 3210 3211 3211 3211 3211 3211 3210 3210 3209 3211 3214 3215 3215 3215 3214 3214 3214 3214 3214 3214 3215 3215 3215 3216 3216 3217 3216 3216 3220 3223 3224 3224 3224 3224 3226 3227 3227 3228 3229 3230 3231 3232 3232 3232 3232 3232 3232 3232 3232 3232 3232 3232 3232 3232 3232 3232 3232 3232 3232 3232 3232 3232 3232 3232 3232 3232 3232 3232 3232 3232 3232 3232 3232
3207 3208 3208 3209 3209 3210 3210 3210 3210 3211 3211 3211 3211 3212 3212 3212 3212 3212 3212 3212 3212 3214 3216 3217 3216 3216 3216 3216 3216 3216 3216 3216 3217 3217 3217 3218 3218 3219 3219 3218 3221 3224 3225 3226 3226 3226 3227 3228 3229 3229 3231 3231 3233 3234 3234 3234 3234 3234 3234 3234 3234 3234 3234 3234 3234 3234 3233 3233 3233 3233 3233 3233 3233 3233 3233 3233 3233 3233 3233 3233 3233 3233 3233 3233 3234
3208 3209 3209 3210 3210 3211 3211 3211 3212 3212 3213 3213 3213 3213 3213 3213 3213 3214 3214 3215 3216 3216 3217 3217 3218 3218 3218 3218 3219 3218 3218 3218 3218 3219 3219 3220 3220 3221 3221 3221 3222 3224 3227 3229 3229 3228 3228 3229 3230 3231 3232 3233 3234 3235 3235 3235 3235 3235 3235 3235 3235 3235 3235 3235 3235 3235 3234 3234 3234 3234 3234 3234 3234 3234 3234 3234 3234 3234 3234 3234 3234 3235 3235 3235 3235
3209 3209 3210 3211 3211 3212 3212 3213 3213 3214 3214 3214 3214 3214 3214 3215 3215 3215 3216 3217 3218 3218 3218 3219 3219 3219 3219 3220 3220 3221 3220 3220 3220 3221 3221 3222 3223 3223 3224 3224 3223 3223 3226 3230 3232 3232 3232 3231 3231 3232 3233 3234 3235 3236 3235 3235 3236 3236 3236 3236 3237 3236 3236 3236 3236 3236 3236 3236 3236 3236 3236 3236 3235 3235 3235 3235 3235 3235 3235 3236 3236 3237 3237 3237 3237
3210 3210 3211 3211 3212 3212 3213 3214 3214 3215 3215 3215 3215 3215 3216 3216 3217 3217 3217 3218 3219 3220 3221 3220 3220 3221 3222 3223 3223 3223 3223 3223 3223 3223 3223 3224 3226 3226 3227 3227 3226 3225 3226 3229 3232 3234 3234 3233 3233 3233 3234 3234 3235 3235 3236 3236 3236 3237 3237 3237 3237 3237 3237 3237 3237 3237 3237 3237 3237 3237 3237 3237 3237 3237 3237 3237 3237 3237 3238 3238 3238 3239 3239 3239 3239
3211 3211 3211 3212 3213 3213 3214 3214 3215 3215 3215 3216 3216 3217 3217 3218 3219 3219 3219 3220 3221 3222 3222 3222 3222 3223 3225 3226 3226 3226 3227 3228 3227 3227 3227 3228 3229 3228 3229 3229 3230 3229 3228 3229 3230 3233 3235 3235 3235 3235 3235 3235 3236 3236 3236 3237 3237 3237 3237 3238 3238 3238 3238 3238 3238 3238 3238 3238 3238 3238 3238 3238 3238 3238 3238 3239 3239 3239 3240 3240 3241 3241 3241 3241 3241
3211 3212 3212 3213 3214 3214 3215 3215 3216 3216 3216 3217 3218 3219 3219 3220 3220 3220 3221 3221 3222 3223 3223 3223 3224 3225 3225 3226 3228 3228 3228 3229 3229 3229 3229 3230 3230 3230 3231 3231 3232 3232 3232 3232 3232 3233 3235 3236 3236 3237 3237 3237 3237 3237 3238 3238 3238 3238 3238 3239 3239 3239 3239 3239 3239 3239 3239 3239 3239 3240 3239 3240 3240 3240 3240 3241 3241 3242 3242 3242 3243 3243 3243 3243 3243
3212 3213 3214 3214 3215 3215 3216 3216 3217 3217 3218 3218 3219 3220 3221 3222 3222 3222 3223 3223 3223 3224 3225 3225 3226 3227 3227 3227 3227 3227 3227 3227 3227 3227 3228 3230 3231 3231 3232 3233 3234 3234 3234 3235 3235 3236 3237 3237 3238 3238 3238 3238 3239 3239 3239 3239 3239 3239 3240 3240 3240 3240 3240 3240 3241 3241 3241 3241 3241 3241 3241 3241 3242 3242 3243 3243 3243 3244 3244 3244 3244 3245 3245 3245 3245
3214 3214 3215 3215 3216 3216 3217 3217 3218 3218 3219 3220 3220 3221 3222 3223 3223 3224 3224 3225 3225 3226 3226 3227 3228 3229 3229 3229 3229 3228 3228 3229 3228 3229 3230 3231 3232 3233 3234 3234 3235 3236 3236 3237 3237 3238 3239 3239 3239 3240 3240 3240 3240 3240 3240 3240 3240 3241 3241 3241 3241 3242 3242 3242 3242 3242 3242 3242 3242 3243 3243 3243 3244 3244 3245 3245 3246 3246 3246 3246 3246 3246 3247 3247 3247
3214 3215 3216 3216 3217 3217 3218 3219 3219 3220 3220 3221 3222 3223 3223 3224 3225 3225 3226 3227 3227 3227 3228 3228 3229 3230 3230 3230 3231 3231 3232 3232 3232 3232 3233 3234 3235 3235 3236 3236 3237 3237 3238 3239 3239 3240 3240 3241 3241 3241 3241 3241 3241 3241 3241 3241 3242 3242 3242 3243 3243 3243 3243 3243 3243 3243 3243 3244 3244 3244 3245 3246 3246 3247 3247 3248 3248 3248 3248 3248 3248 3248 3248 3248 3248
3215 3216 3217 3218 3218 3219 3219 3220 3221 3221 3222 3222 3223 3224 3224 3225 3226 3227 3228 3228 3228 3228 3229 3230 3230 3231 3231 3232 3232 3233 3234 3234 3234 3235 3235 3236 3237 3237 3238 3238 3238 3239 3240 3240 3241 3242 3242 3242 3243 3243 3243 3243 3243 3243 3243 3243 3243 3243 3244 3244 3245 3245 3245 3245 3244 3245 3245 3245 3246 3247 3247 3248 3248 3249 3249 3250 3250 3250 3250 3250 3250 3250 3250 3250 3250
3216 3217 3218 3219 3220 3220 3221 3221 3222 3222 3223 3223 3224 3225 3226 3227 3228 3228 3229 3229 3230 3230 3231 3231 3232 3232 3233 3233 3234 3234 3235 3236 3236 3237 3237 3238 3238 3239 3239 3240 3240 3241 3242 3242 3243 3243 3244 3244 3244 3244 3245 3244 3244 3244 3244 3244 3244 3245 3245 3246 3246 3246 3246 3246 3246 3246 3247 3247 3248 3249 3249 3250 3250 3251 3251 3251 3252 3252 3252 3252 3252 3252 3251 3251 3251
3217 3218 3219 3220 3221 3222 3222 3223 3223 3224 3224 3225 3225 3226 3227 3228 3229 3230 3230 3231 3231 3232 3233 3233 3234 3234 3234 3235 3235 3236 3236 3237 3238 3238 3239 3239 3240 3241 3241 3241 3242 3242 3243 3244 3244 3245 3245 3245 3246 3246 3246 3246 3246 3245 3245 3245 3246 3246 3247 3247 3247 3248 3248 3248 3248 3248 3249 3250 3250 3251 3251 3252 3252 3253 3253 3253 3253 3254 3254 3253 3253 3253 3253 3252 3252
3218 3219 3220 3221 3222 3223 3224 3224 3225 3225 3226 3226 3227 3228 3229 3230 3230 3231 3232 3233 3233 3234 3234 3235 3235 3236 3236 3236 3237 3237 3238 3239 3239 3240 3240 3241 3242 3242 3242 3243 3243 3244 3245 3245 3246 3246 3246 3247 3247 3247 3247 3247 3247 3247 3247 3247 3247 3247 3248 3248 3249 3249 3249 3249 3250 3250 3251 3252 3252 3253 3253 3254 3254 3255 3255 3255 3255 3255 3255 3255 3255 3255 3254 3254 3253
3219 3220 3221 3222 3223 3224 3225 3226 3226 3227 3227 3228 3228 3229 3230 3231 3232 3232 3233 3234 3235 3235 3236 3236 3237 3237 3237 3238 3238 3239 3240 3240 3241 3241 3242 3243 3243 3244 3244 3245 3245 3246 3246 3247 3247 3247 3248 3248 3249 3249 3249 3249 3249 3249 3249 3248 3249 3249 3249 3250 3250 3250 3251 3251 3252 3253 3253 3254 3255 3255 3255 3256 3256 3257 3257 3257 3257 3257 3257 3257 3256 3256 3255 3255 3254
3220 3221 3222 3223 3224 3225 3226 3227 3228 3228 3229 3230 3230 3230 3231 3232 3233 3234 3234 3235 3236 3236 3237 3237 3238 3238 3239 3239 3240 3241 3241 3242 3242 3243 3244 3244 3245 3245 3246 3246 3247 3247 3248 3248 3248 3249 3249 3250 3250 3250 3250 3251 3251 3251 3251 3250 3250 3251 3251 3251 3252 3252 3253 3254 3254 3255 3255 3256 3257 3257 3257 3258 3258 3258 3259 3259 3259 3259 3258 3258 3257 3257 3256 3256 3255
3220 3222 3223 3224 3225 3226 3227 3228 3229 3230 3230 3231 3232 3232 3233 3234 3234 3235 3236 3236 3237 3238 3238 3239 3239 3240 3240 3241 3242 3242 3243 3243 3244 3245 3245 3246 3246 3246 3247 3248 3248 3249 3249 3250 3250 3251 3251 3251 3252 3252 3252 3252 3253 3253 3252 3252 3252 3252 3252 3253 3253 3254 3255 3256 3256 3257 3257 3258 3258 3259 3259 3260 3260 3260 3260 3260 3260 3260 3259 3259 3258 3258 3257 3256 3256
3221 3222 3223 3224 3226 3227 3228 3229 3230 3231 3232 3232 3233 3234 3234 3235 3236 3237 3237 3238 3238 3239 3239 3240 3241 3241 3242 3243 3244 3244 3244 3245 3245 3246 3247 3247 3247 3248 3248 3249 3249 3250 3250 3251 3252 3252 3252 3253 3253 3254 3254 3254 3254 3254 3254 3254 3254 3254 3254 3255 3255 3256 3257 3258 3258 3258 3259 3259 3260 3260 3261 3261 3261 3261 3262 3261 3261 3261 3260 3260 3259 3259 3258 3257 3257
3222 3223 3224 3225 3226 3227 3229 3230 3231 3232 3233 3234 3234 3235 3236 3237 3237 3238 3239 3239 3240 3240 3241 3241 3242 3243 3243 3244 3245 3246 3246 3247 3247 3247 3248 3248 3249 3249 3250 3250 3251 3251 3252 3253 3253 3254 3254 3254 3255 3255 3256 3256 3256 3256 3255 3255 3255 3255 3256 3256 3257 3258 3259 3259 3260 3260 3261 3261 3261 3262 3262 3262 3262 3263 3263 3263 3262 3262 3262 3261 3260 3260 3259 3258 3257
3223 3224 3225 3226 3227 3228 3229 3230 3232 3233 3234 3235 3236 3236 3237 3238 3238 3239 3240 3241 3241 3242 3242 3242 3243 3244 3244 3245 3246 3247 3247 3248 3249 3249 3249 3250 3250 3250 3251 3251 3252 3253 3253 3254 3254 3255 3255 3256 3256 3257 3257 3257 3257 3257 3257 3257 3257 3257 3257 3258 3259 3259 3260 3261 3261 3262 3262 3263 3263 3263 3263 3264 3264 3264 3264 3264 3264 3263 3263 3262 3261 3261 3260 3259 3258
3224 3225 3226 3227 3228 3229 3230 3231 3232 3234 3235 3236 3237 3237 3238 3239 3239 3240 3241 3242 3242 3243 3243 3244 3244 3245 3245 3246 3247 3248 3248 3249 3250 3250 3251 3251 3251 3252 3252 3253 3253 3254 3254 3255 3256 3256 3257 3257 3258 3258 3258 3259 3259 3259 3259 3259 3259 3259 3259 3260 3260 3261 3262 3262 3263 3263 3264 3264 3265 3265 3265 3265 3265 3265 3265 3265 3265 3264 3264 3263 3262 3262 3261 3260 3260
3224 3225 3227 3228 3229 3229 3231 3232 3233 3234 3235 3236 3237 3238 3239 3240 3240 3241 3242 3242 3243 3244 3245 3245 3246 3246 3247 3247 3248 3249 3249 3250 3251 3251 3252 3253 3253 3253 3254 3254 3255 3255 3256 3256 3257 3258 3258 3259 3259 3259 3259 3260 3260 3260 3260 3260 3260 3260 3261 3262 3262 3263 3263 3264 3264 3265 3265 3266 3266 3266 3266 3266 3266 3267 3266 3266 3266 3266 3265 3264 3264 3263 3262 3262 3261
3225 3226 3227 3228 3229 3230 3231 3232 3233 3235 3236 3237 3238 3239 3240 3240 3241 3242 3242 3243 3244 3245 3245 3246 3247 3247 3248 3248 3249 3249 3250 3251 3252 3252 3253 3254 3254 3255 3255 3256 3256 3256 3257 3257 3258 3259 3260 3260 3260 3260 3260 3261 3261 3261 3261 3262 3262 3262 3263 3263 3264 3264 3265 3266 3266 3267 3267 3267 3268 3268 3268 3268 3268 3268 3268 3268 3267 3267 3266 3266 3265 3265 3264 3263 3262
3225 3226 3227 3228 3230 3231 3232 3233 3234 3235 3236 3237 3238 3239 3241 3241 3242 3243 3243 3244 3245 3246 3246 3247 3248 3248 3249 3249 3250 3250 3251 3252 3253 3253 3254 3255 3255 3255 3256 3257 3257 3257 3258 3258 3259 3260 3261 3261 3261 3261 3261 3262 3262 3262 3263 3263 3263 3263 3264 3265 3265 3266 3267 3267 3268 3268 3269 3269 3269 3270 3270 3270 3269 3269 3269 3269 3269 3268 3268 3267 3267 3266 3265 3265 3264
3225 3226 3227 3228 3230 3231 3232 3234 3235 3236 3237 3238 3239 3240 3241 3242 3243 3244 3244 3245 3246 3246 3247 3248 3248 3249 3250 3250 3251 3251 3252 3253 3254 3254 3255 3255 3256 3256 3257 3257 3258 3258 3259 3259 3260 3261 3261 3262 3262 3262 3262 3263 3263 3263 3264 3264 3264 3265 3265 3266 3267 3268 3268 3269 3269 3270 3270 3271 3271 3271 3271 3271 3271 3271 3271 3270 3270 3270 3270 3269 3268 3268 3267 3266 3266
3225 3226 3228 3229 3230 3231 3233 3234 3235 3236 3237 3239 3240 3241 3242 3243 3244 3244 3245 3246 3246 3247 3248 3249 3249 3250 3250 3251 3252 3252 3253 3254 3254 3255 3255 3256 3256 3257 3258 3258 3259 3259 3260 3260 3261 3261 3262 3263 3263 3263 3263 3264 3264 3264 3265 3265 3265 3266 3267 3267 3268 3269 3269 3270 3271 3271 3271 3272 3272 3272 3273 3273 3272 3272 3272 3272 3272 3271 3271 3271 3270 3269 3268 3268 3267
3225 3226 3228 3229 3231 3232 3233 3234 3236 3237 3238 3239 3240 3242 3243 3243 3244 3245 3245 3246 3247 3248 3248 3249 3250 3250 3251 3252 3252 3253 3254 3254 3255 3255 3256 3256 3257 3257 3258 3259 3259 3260 3260 3261 3261 3262 3263 3263 3263 3264 3264 3265 3265 3265 3266 3266 3266 3267 3268 3268 3269 3270 3270 3271 3272 3272 3272 3273 3273 3274 3274 3274 3274 3274 3273 3273 3273 3273 3273 3272 3271 3271 3270 3269 3269
3225 3226 3228 3229 3231 3232 3233 3234 3236 3237 3238 3239 3241 3242 3243 3243 3244 3245 3246 3246 3247 3248 3249 3249 3250 3251 3252 3253 3253 3254 3254 3255 3255 3256 3256 3257 3257 3258 3258 3259 3259 3260 3261 3261 3262 3263 3263 3264 3264 3264 3265 3265 3266 3266 3267 3267 3267 3268 3268 3269 3270 3271 3271 3272 3273 3273 3273 3274 3274 3275 3275 3275 3275 3275 3275 3274 3274 3274 3274 3273 3273 3272 3271 3271 3270
3225 3226 3228 3229 3231 3232 3234 3235 3236 3237 3239 3240 3241 3242 3242 3243 3244 3245 3246 3247 3248 3248 3250 3250 3251 3251 3252 3253 3254 3255 3255 3256 3256 3257 3257 3257 3258 3258 3259 3259 3260 3260 3261 3262 3262 3263 3263 3264 3264 3265 3266 3266 3266 3267 3267 3268 3268 3268 3269 3270 3270 3271 3272 3273 3273 3274 3274 3275 3275 3276 3276 3276 3276 3276 3276 3276 3275 3275 3275 3274 3274 3273 3273 3272 3271
3224 3226 3227 3229 3231 3233 3234 3235 3236 3237 3238 3240 3240 3242 3243 3244 3245 3246 3247 3248 3249 3249 3250 3251 3252 3252 3253 3254 3254 3255 3256 3256 3256 3257 3257 3258 3258 3259 3259 3260 3260 3261 3261 3262 3262 3263 3264 3264 3265 3266 3266 3267 3267 3267 3268 3268 3269 3269 3270 3270 3271 3272 3272 3273 3274 3275 3275 3276 3276 3276 3277 3277 3277 3277 3277 3277 3276 3276 3276 3275 3275 3274 3274 3273 3272
3224 3226 3227 3229 3231 3233 3234 3235 3236 3237 3238 3239 3241 3242 3243 3244 3246 3247 3248 3249 3249 3250 3251 3251 3252 3253 3253 3254 3255 3255 3256 3256 3257 3257 3258 3258 3259 3259 3260 3260 3261 3261 3262 3262 3263 3263 3264 3265 3265 3266 3266 3267 3267 3268 3268 3268 3269 3269 3270 3271 3272 3272 3273 3274 3274 3275 3276 3277 3277 3277 3277 3278 3278 3278 3278 3277 3277 3277 3276 3276 3276 3275 3274 3274 3273
3224 3225 3227 3228 3230 3232 3233 3235 3237 3238 3238 3239 3240 3242 3243 3245 3246 3247 3248 3249 3249 3250 3251 3251 3252 3253 3253 3254 3255 3255 3256 3256 3257 3257 3258 3258 3259 3259 3260 3260 3261 3261 3261 3262 3263 3263 3264 3265 3265 3266 3267 3267 3268 3268 3268 3269 3269 3270 3270 3271 3272 3273 3273 3274 3275 3275 3276 3277 3278 3278 3278 3278 3278 3278 3278 3278 3278 3277 3277 3277 3276 3276 3275 3275 3274
3223 3225 3226 3228 3230 3231 3233 3235 3236 3237 3238 3239 3240 3242 3243 3245 3246 3247 3248 3248 3249 3250 3251 3251 3252 3253 3253 3254 3254 3255 3256 3256 3257 3257 3258 3258 3259 3259 3260 3260 3261 3261 3261 3262 3263 3263 3264 3265 3265 3266 3267 3267 3268 3268 3268 3269 3269 3270 3270 3271 3272 3273 3274 3274 3275 3276 3276 3277 3278 3278 3279 3279 3279 3279 3279 3279 3278 3278 3277 3277 3277 3276 3276 3275 3275
3223 3224 3226 3228 3230 3231 3232 3234 3235 3237 3238 3239 3240 3242 3243 3244 3246 3247 3247 3248 3249 3250 3251 3251 3252 3253 3253 3254 3255 3255 3256 3256 3257 3257 3258 3258 3259 3259 3260 3260 3260 3261 3261 3262 3263 3263 3264 3265 3265 3266 3267 3267 3268 3268 3269 3269 3270 3270 3270 3271 3272 3272 3273 3274 3275 3276 3277 3277 3278 3279 3279 3279 3279 3279 3279 3279 3279 3278 3278 3277 3277 3277 3276 3276 3275
3222 3224 3226 3227 3229 3231 3232 3233 3235 3237 3238 3239 3240 3241 3243 3244 3245 3246 3247 3248 3249 3250 3251 3251 3252 3253 3253 3254 3255 3255 3256 3256 3257 3257 3258 3258 3259 3259 3259 3260 3260 3261 3262 3262 3263 3263 3264 3265 3265 3266 3267 3267 3268 3268 3269 3269 3270 3270 3271 3271 3272 3272 3273 3274 3275 3276 3276 3277 3278 3279 3279 3279 3279 3279 3279 3279 3279 3279 3278 3278 3277 3277 3276 3276 3276
3222 3223 3225 3227 3228 3230 3232 3233 3234 3236 3237 3238 3239 3241 3242 3244 3245 3246 3247 3248 3249 3250 3251 3251 3252 3253 3253 3254 3255 3255 3256 3256 3257 3257 3258 3258 3258 3259 3259 3260 3260 3261 3261 3262 3263 3263 3264 3265 3265 3266 3266 3267 3268 3268 3269 3269 3270 3270 3271 3271 3271 3272 3273 3273 3274 3275 3276 3277 3277 3278 3279 3279 3279 3279 3279 3279 3279 3279 3278 3278 3277 3277 3277 3276 3276